sat.trackr.live / text

‹ back to catalog

E3T-1 (E3TESTER-1)

NORAD 66662 · 2025-274N

PAYLOAD ACTIVE UNKNOWN

§ Identity

Operator
Country
SKOR
Launch date
2025-11-26
Launch site
NSC
Launch vehicle
Mass (kg)
RCS (m²)

External: N2YO · Heavens-Above · Gunter

§ Orbital elements

Epoch: 2026-09-20T02:44:33.985536Z

Period
96.35 min
Inclination
97.7491°
Eccentricity
0.0016304
Mean motion
14.94489024 rev/d
Perigee alt
572.6 km
Apogee alt
595.3 km
Semi-major
6,962.1 km
B*
9.5292e-5
RAAN
191.3890°
Arg perigee
64.9847°
Mean anomaly
295.3065°
Rev number
4,441

§ Raw data

E3T-1 (E3TESTER-1)1 66662U 25274N   26263.11428224  .00000973  00000+0  95292-4 0  99982 66662  97.7491 191.3890 0016304  64.9847 295.3065 14.94489024 44416

JSON: /api/v1/satellites/66662 · /tle

For live sub-satellite position, see the globe view (requires WebGL).

§ Visibility from observer

Set your observer location to see the next 7 days of passes ≥ 10°. The values pass through the URL so the page stays shareable.

No JS? Fill the form by hand. The geolocation button needs JavaScript.